Location: Poughquag
(41.6090°N, 73.6820°W)
Time: 03:06:05
(UTC-04:00)

Altair - Pass Details

Date: 05 June 2020
Orbit: 1501 x 1683 km, 47.2° (Epoch: 06 July)

Event Time Altitude Azimuth Distance (km) Brightness Sun altitude
Rises 02:49:24 0° 295° (WNW) 4,916 10.1 -20.4°
Reaches altitude 10° 02:52:33 10° 295° (WNW) 3,938 9.6 -20.1°
Maximum altitude 03:02:46 87° 209° (SSW) 1,687 7.6 -19.1°
Drops below altitude 10° 03:12:54 10° 121° (ESE) 3,909 9.7 -18.1°
Sets 03:16:00 0° 121° (ESE) 4,879 10.2 -17.8°
